Location: Altleiningen
(49.5078°N, 8.0741°E)
Time: 11:19:05
(UTC+00:00)

Cosmos 44 Rocket - Pass Details

Date: 03 March 2021
Orbit: 636 x 754 km, 65.1° (Epoch: 13 April)

Event Time Altitude Azimuth Distance (km) Brightness Sun altitude
Rises 18:19:39 0° 318° (NW) 3,210 7.5 -11.5°
Reaches altitude 10° 18:22:05 10° 314° (NW) 2,286 6.7 -11.9°
Maximum altitude 18:27:11 54° 238° (WSW) 912 4.2 -12.7°
Drops below altitude 10° 18:32:14 10° 162° (SSE) 2,257 5.7 -13.5°
Sets 18:34:38 0° 158° (SSE) 3,166 6.4 -13.9°
